BEIDOU-3 M12 (C26)

Last updated on Sun Apr 12 2026 00:03:31 GMT+0000 (Coordinated Universal Time)

1 43602U 18067A 26099.71527321 -.00000007 00000+0 00000+0 0 9997 2 43602 54.1793 183.3624 0008068 36.4364 323.6651 1.86228001 51843
UTC large
Height (km)
Speed (km/s)
/
Latitude / Longitude
Inclination (degrees)
Orbital Period (minutes)
Azimuth
Elevation
Range (km)
Doppler Factor

Next 0 passes for location: London (51.5072 / 0.1276)

Sorry there are no passes over London.